Weather in Ronneby

Sweden     56°12′30″N   15°16′53″E
temp.,
°C
wind,
m/s
gust,
m/s
humid.,
%
clouds,
%
prec.,
mm/h
press.,
hPa
HPBL,
m
21 may, sat
sat2123:00+10ene4893100 0.0 1011277
02:00+9ene4109365 0.0 1008371
05:00+9ne3893100 0.1 1007522
08:00+9n2595100 4.8 1006559
11:00+9wnw3697100 3.2 1009362
14:00+10wnw3695100 4.1 1009395
17:00+9n2793100 0.8 1011462
20:00+9nnw2595100 0.8 1012259
22 may, sun
sun2223:00+9nw2796100 0.1 1013300
02:00+8nw2697100 0.1 1013231
05:00+9nw2696100 0.0 1013243
08:00+11nnw258392 0.0 1014449
11:00+15nw345081 0.0 10131341
14:00+16wnw344693 0.0 10131859
17:00+14ese026689 0.6 1013311
20:00+11ese358163 0.8 1014210
23 may, mon
mon2323:00+9ese239185 0.0 101482
02:00+9ese2292100 0.0 101454
05:00+8ese2396100 0.0 101453
08:00+13sse3474100 0.0 1014497
11:00+15sse446410 0.1 1014963
14:00+15sse456214 0.1 10131048
17:00+14sse456465 0.0 1012769
20:00+11ese3769100 0.0 1011353
24 may, tue
tue2423:00+8e4118699 0.0 1010310
02:00+10ese5118450 0.0 1009404
05:00+11ese51387100 0.0 1007446
08:00+13se61370100 0.0 1005677
11:00+14se71466100 0.0 1005631
14:00+11se51197100 2.4 1005675
17:00+11sse249887 1.4 1005227
20:00+14sw249252 1.4 1006304
25 may, wed
wed2523:00+10wsw22960 0.0 100835
02:00+9wsw23953 0.0 101049
05:00+9sw2696100 0.0 1010139
08:00+12wsw4883100 0.0 1011540
11:00+16wsw465898 0.0 10111260
14:00+17ssw675522 0.1 10111427
17:00+17sw5753100 0.2 10101369
20:00+14sw487086 0.3 1009326